Location: Unspecified
(48.8656°N, 0.0000°E)
Time: 18:40:55
(UTC+00:00)

Tiangong 2 - Pass Details

Date: 26 May 2019
Orbit: 376 x 389 km, 42.8° (Epoch: 17 June)

Event Time Altitude Azimuth Distance (km) Brightness Sun altitude
Rises 21:21:11 0° 262° (W) 2,238 5.4 -11.8°
Reaches altitude 10° 21:23:36 10° 244° (WSW) 1,384 4.0 -12.0°
Maximum altitude 21:25:55 19° 195° (SSW) 965 2.7 -12.3°
Enters shadow 21:26:32 18° 179° (S) 999 2.7 -12.3°
